Location: ??
(35.5653°N, 139.6194°E)
Time: 00:47:37
(UTC+00:00)

Cosmos 1743 Rocket - Pass Details

Date: 20 November 2019
Orbit: 605 x 632 km, 82.6° (Epoch: 14 December)

Event Time Altitude Azimuth Distance (km) Brightness Sun altitude
Rises 19:53:04 0° 183° (S) 2,854 7.1 -18.1°
Reaches altitude 10° 19:55:16 10° 182° (S) 1,951 6.2 -17.6°
Maximum altitude 19:59:35 80° 96° (E) 619 3.6 -16.8°
Drops below altitude 10° 20:03:55 10° 9° (N) 1,958 6.1 -15.9°
Sets 20:06:08 0° 8° (N) 2,865 6.9 -15.5°
